Regional Weather Roundup
Issued by NWS

Home | Current Version | Previous Version | Text Only | Print | Product List | Glossary Off
Versions: 1 2 3 4 5 6 7 8 9 10 11 12 13 14 15 16 17 18 19 20 21 22 23 24 25 26 27

000
ASUS45 KBOU 260207
RWRCO

WEATHER ROUNDUP FOR COLORADO
NATIONAL WEATHER SERVICE DENVER/BOULDER CO
700 PM MST SAT FEB 25 2017

NOTE: "FAIR" INDICATES FEW OR NO CLOUDS BELOW 12000 FEET WITH NO
SIGNIFICANT WEATHER AND/OR OBSTRUCTIONS TO VISIBILITY.

COZ001>005-013-030-031-260300-
...NORTHWEST COLORADO...

CITY           SKY/WX    TMP DP  RH WIND       PRES   REMARKS
CRAIG          LGT SNOW  20  15  81 NW12      29.88R WCI   8
HAYDEN         CLOUDY    18  12  79 NW9       29.85R WCI   6
MEEKER         CLOUDY    23  13  65 SW8       29.86S WCI  14
MOUNT WERNER   NOT AVBL
STEAMBOAT SPGS CLOUDY    15  13  91 CALM      29.83R VSB 3/4
WALDEN         NOT AVBL
$$

COZ006>008-011-260300-
...WEST CENTRAL VALLEYS...

CITY           SKY/WX    TMP DP  RH WIND       PRES   REMARKS
GRAND JUNCTION CLOUDY    33   9  36 W7        29.90R WCI  27
MONTROSE       CLOUDY    30   8  39 SW3       29.90R
EAGLE          CLOUDY    25  12  58 SW13      29.86S WCI  13
RIFLE          CLOUDY    30  12  47 CALM      29.88R
DELTA          CLOUDY    37   4  26 W3        29.89S
NUCLA          MOCLDY    32   7  34 SW5       29.92S WCI  27
$$

COZ017>023-064>068-260300-
...SOUTHWEST COLORADO...

CITY           SKY/WX    TMP DP  RH WIND       PRES   REMARKS
DURANGO        MOCLDY    30   4  33 NW13      29.87F WCI  20
CORTEZ         FAIR      32  11  41 E3        29.90S
PAGOSA SPRINGS CLOUDY    28   2  33 SW13G18   29.86R WCI  18
TELLURIDE      FAIR      20   4  51 W3        29.85S
WOLF CREEK PAS CLOUDY     5   3  92 S25G36    29.79S WCI -18
$$

COZ009-010-012-014-032>034-037-058>063-260300-
...CENTRAL COLORADO...

CITY           SKY/WX    TMP DP  RH WIND       PRES   REMARKS
ASPEN          CLOUDY    17  12  80 S3        29.80S
BUENA VISTA    CLOUDY    21   3  44 W13       29.78S WCI   9
COPPER MTN     CLOUDY     5  -4  66 MISG      29.62S
BERTHOUD PASS  LGT SNOW  -6 -15  65 W37G52    29.53F VSB 1   WCI -36
COTTONWOOD PAS CLOUDY    16   5  62 NW3       29.72S
GUNNISON       FAIR      17   9  70 N5        29.84R WCI  10
KREMMLING      FLURRIES  23  16  74 W7        29.79S WCI  15
LEADVILLE      LGT SNOW   7   3  84 N6        29.71S VSB 1   WCI  -3
MONARCH PASS   SNOW       3  -2  78 W31G39    29.75F VSB 1/2 WCI -22
SALIDA         CLOUDY    24   7  48 SW12G17   29.88S WCI  13
SUNLIGHT       NOT AVBL
WILKERSON PASS CLOUDY     5  -4  66 SW12G20   29.68F WCI -11
$$

COZ069>075-260300-
...SAN LUIS VALLEY/SANGRE DE CRISTO MOUNTAINS...

CITY           SKY/WX    TMP DP  RH WIND       PRES   REMARKS
ALAMOSA        FAIR      26  14  60 SW9       29.80S WCI  17
LA VETA PASS   MOCLDY    16   7  67 SW16G33   29.74R WCI   0
SAGUACHE       FAIR      21   5  49 NW12      29.81R WCI   9
$$

COZ035-036-038>040-260300-
...NORTHERN COLORADO FRONT RANGE...

CITY           SKY/WX    TMP DP  RH WIND       PRES   REMARKS
DENVER INTL AP FAIR      26   5  40 SE3       29.79F
DMNS CITY PARK   N/A     30  -1  26 S5G12     29.79S WCI  25
AURORA         PTCLDY    25  -3  29 SW7       29.79F WCI  17
FRONT RANGE AP PTCLDY    27   9  46 W5        29.80F WCI  21
ERIE MUNI ARPT FAIR      30   1  29 SW6       29.79F WCI  24
BOULDER MUN AP MOCLDY    32   5  32 S7        29.78F WCI  26
CENTENNIAL     FAIR      28   1  31 W14       29.78F WCI  17
BROOMFIELD     CLOUDY    28   3  34 W6        29.79F WCI  22
FORT COLLINS   FAIR      27   7  42 SE3       29.79F
LONGMONT       FAIR      29  12  49 SW8       29.81F WCI  21
$$

COZ041-046-047-076>085-087-088-260300-
...PIKES PEAK/PALMER DIVIDE AND SOUTHERN FOOTHILLS...

CITY           SKY/WX    TMP DP  RH WIND       PRES   REMARKS
COLO. SPRINGS  FAIR      28 -10  18 NW8       29.81R WCI  20
A. F. ACADEMY  FAIR      26  -7  23 W12       29.78R WCI  16
SCHRIEVER AFB  FAIR      27 -10  20 N6        29.80R WCI  20
ELLICOTT       NOT AVBL
FALCON         FAIR      25  -9  23 NW7       29.79F WCI  17
FORT CARSON    FAIR      26  -7  23 W7        29.80R WCI  19
LIMON          FAIR      21   6  52 N7        29.81R WCI  12
MONUMENT HILL  FAIR      18   1  49 NW8       29.79S WCI   7
TRINIDAD       FAIR      36   1  22 NW8       29.80R
$$

COZ042>045-048>051-090-091-260300-
...NORTHEAST COLORADO...

CITY           SKY/WX    TMP DP  RH WIND       PRES   REMARKS
GREELEY ARPT   FAIR      28  11  48 W5        29.81F WCI  23
AKRON          FAIR      26  17  68 S6        29.82R WCI  19
BURLINGTON     CLOUDY    28   5  37 E10       29.82R WCI  19
WRAY           NOT AVBL
STERLING       FAIR      30  19  64 NW7       29.82S WCI  23
HOLYOKE        FAIR      30  21  69 CALM      29.85S
FORT MORGAN    FAIR      24  17  73 N7        29.83R WCI  16
$$

COZ086-089-092>099-260300-
...SOUTHEAST COLORADO...

CITY           SKY/WX    TMP DP  RH WIND       PRES   REMARKS
PUEBLO         FAIR      37  -5  16 NW18      29.79R
LA JUNTA       FAIR      40  -5  14 W15       29.80R
LAMAR          FAIR      34   3  27 SE10      29.78S WCI  26
SPRINGFIELD      N/A     32   7  35 CALM      29.78S
$$




USA.gov is the U.S. government's official web portal to all federal, state and local government web resources and services.